Orbital Elements at Epoch 2459200.5 (2020-Dec-17.0) TDB
Reference: JPL 34 (heliocentric ecliptic J2000)
Element | Value | Uncertainty (1-sigma) | Units |
e | .04931239418675547 | 3.1737e-08 | |
a | 2.864422942582153 | 1.195e-08 | au |
q | 2.723171389319956 | 9.3438e-08 | au |
i | 1.520323106091295 | 3.5785e-06 | deg |
node | 212.6934725958772 | 0.00013573 | deg |
peri | 204.5224479349873 | 0.00014117 | deg |
M | 25.77958635225336 | 3.8396e-05 | deg |
tp | 2459073.697567167755 (2020-Aug-12.19756717) | 0.00018878 | TDB |
period | 1770.737326652955 4.85 | 1.1081e-05 3.034e-08 | d yr |
n | .2033051399444272 | 1.2723e-09 | deg/d |
Q | 3.00567449584435 | 1.254e-08 | au |
|
| | Orbit Determination Parameters
Additional Information
|